STARLINK-1734, 46325

Orbit data source: Space-Track

STARLINK-1734, 46325 is a payload satellite owned by SpaceX/Seattle (US) in LEO that was launched on Thu, 03 Sep 2020 UTC via an FALCON 9 launch vehicle from the Air Force Eastern Test Range (AFETR). Payloads include a variety of satellites, spacecraft, and rockets equipped with specific instruments for various scientific and technological missions. These include communications satellites like Starlink; space stations such as the ISS; scientific satellites like the Hubble; Earth observation satellites from companies like Planet Labs, Umbra, and HawkEye 360; GPS; miniature CubeSats for education and research; and military/defense satellites.

Loading next visibility...
STARLINK-1734 details
Identifier
46325, 2020-062A
Orbit
LEO
Last TLE update21 hours ago
Origin
Flag of USSpaceX/Seattle (US)
ManufacturerSpaceX/Seattle
MissionOperational Commercial Communications
Bus & MotorSTARLINK, Unknown motor
Mass260 kg wet, ~248 kg dry
Launch date (UTC)
2020-09-03 (4 years ago)
Launch vehicle
FALCON 9
Launch site
Air Force Eastern Test Range (AFETR)
Object type
Payload
Rocket body
Debris
Shape & HBRBox + 1 Pan, 8.86 m
Radar Cross Section13.562 m², Large (>1 m²)

Expand to show TLE details & history

TLE from 21 hours ago
0 STARLINK-1734
1 46325U 20062A   24360.56905442 -.00001909  00000-0 -10935-3 0  9992
2 46325  53.0537 142.9054 0001318  89.2266 270.8874 15.06388635239348
Epoch: 2024-12-25T13:39Z
Definitive object data (Epoch: 2024-12-25T13:39:26.301Z)
Latitude-0.00004°
Longitude-156.51514°
Altitude548.111 km
Speed7.589 km/s
True Right ascension09h 31m 37s
True Declination0° 00' 00"
Sunlit
Object was in full shadow at TLE epoch
Visualization TLE readout
Latitude40.41534°
Longitude-120.87072°
Altitude550.205 km
Speed7.592 km/s
Apparent Right ascension16h 22m 49s
Apparent Declination8° 43' 12"
Sunlit
Object is in daylight
Visualization observer readout
Local Sidereal Time09:56:58
Azimuth79.183° E
Elevation0.685°
Doppler factor1
Orbital elements
Apogee altitude548.43 km
Perigee altitude546.604 km
Semi-major axis6,925.654 km
Eccentricity0.0001318
Inclination53.0537°
RAAN142.9054°
Arg. of periapsis89.2266°
True anomaly270.8723°
Mean anomaly270.8874°
Eccentric anomaly270.87985°
Mean motion3.76575 °/min
BSTAR-0.00010935
Orbital period95.6 mins
Loading maneuver chart data...
Loading historical data...
Loading historical data...
Loading historical data...
Loading historical data...
Loading historical data...
Loading historical data...
Loading historical data...

STARLINK-1734 Visibility forecast

Observer location: undefined°, undefined

Span
Click to sort rows by Start time (UTC) header in descending order
Start Az.
Max El. time (UTC)
Max El. Az.
Max El.
End time (UTC)
End Az.
7 mins2024-12-26 12:06:45.780Z216.58° SW2024-12-26 12:10:45.780Z108.625° ESE40.918°2024-12-26 12:13:45.780Z57.625° ENE
4 mins2024-12-26 13:48:45.780Z301.868° NW2024-12-26 13:49:45.780Z323.251° NNW22.79°2024-12-26 13:52:45.780Z23.232° NE
6 mins2024-12-26 18:49:45.780Z322.518° NNW2024-12-26 18:51:45.780Z19.823° NNE41.442°2024-12-26 18:55:45.780Z118.447° SE
4 mins2024-12-26 20:29:45.780Z257.004° W2024-12-26 20:30:45.780Z239.333° WSW16.873°2024-12-26 20:33:45.780Z191.073° SSW
|